Weather History for Eveleth, MN

Change the Weather History Date:

Wednesday, February 6, 2013

  Actual Average Record
Temperature  
Mean Temperature 13 °F -  
Max Temperature 21 °F 23 °F 45 °F (1987)
Min Temperature 5 °F 2 °F -27 °F (2007)
Degree Days  
Heating Degree Days 52    
Moisture  
Dew Point 9 °F    
Average Humidity 79    
Maximum Humidity 86    
Minimum Humidity 62    
Precipitation  
Precipitation 0.01 in - - ()
Sea Level Pressure  
Sea Level Pressure 30.02 in    
Wind  
Wind Speed 2 mph (East)    
Max Wind Speed 7 mph    
Max Gust Speed -    
Visibility 8 miles    
Events Snow    
Averages and records for this station are not official NWS values.
T = Trace of Precipitation, MM = Missing Value Source: NWS Daily Summary

Daily Weather History Graph

Daily Weather History Graph

Search for Another Location

Airport:

Trip Planner

Search our weather history database for the weather conditions in past years. The results will help you decide how hot, cold, wet, or windy it might be!

Date:

Astronomy

Feb. 06, 2013 Rise Set
Actual Time 7:28 AM CST 5:20 PM CST
Civil Twilight 6:56 AM CST 5:52 PM CST
Nautical Twilight 6:20 AM CST 6:28 PM CST
Astronomical Twilight 5:44 AM CST 7:04 PM CST
Moon 4:21 AM CST (2/6) 1:30 PM CST (2/6)
Length of Visible Light 10h 55m
Length of Day
9h 51m
Waning Crescent, 17% of the Moon is Illuminated
Feb 6
Waning Crescent
Feb 10
New
Feb 17
First Quarter
Feb 25
Full
Mar 4
Last Quarter

Hourly Weather History & Observations

Time (CST) Temp. Windchill Dew Point Humidity Pressure Visibility Wind Dir Wind Speed Gust Speed Precip Events Conditions
12:09 AM 5.0 °F - -0.4 °F 78% 30.01 in 10.0 mi Calm Calm - N/A   Overcast
12:29 AM 5.0 °F - 1.4 °F 85% 30.01 in 10.0 mi Calm Calm - N/A   Overcast
1:09 AM 5.0 °F - -0.4 °F 78% 30.00 in 10.0 mi Calm Calm - N/A   Overcast
1:29 AM 5.0 °F - 1.4 °F 85% 30.00 in 10.0 mi Calm Calm - N/A   Overcast
1:49 AM 5.0 °F - 1.4 °F 85% 30.00 in 10.0 mi Calm Calm - N/A   Overcast
2:30 AM 6.8 °F - 1.4 °F 79% 30.01 in 10.0 mi Calm Calm - N/A   Overcast
2:49 AM 8.6 °F - 1.4 °F 73% 30.01 in 10.0 mi Calm Calm - N/A   Overcast
3:09 AM 6.8 °F - 1.4 °F 79% 30.01 in 10.0 mi Calm Calm - N/A   Overcast
3:30 AM 6.8 °F - 1.4 °F 79% 30.00 in 10.0 mi Calm Calm - N/A   Overcast
3:49 AM 6.8 °F - 1.4 °F 79% 30.00 in 10.0 mi Calm Calm - N/A   Overcast
4:09 AM 6.8 °F - 1.4 °F 79% 30.01 in 10.0 mi Calm Calm - N/A   Overcast
4:30 AM 5.0 °F - -0.4 °F 78% 30.00 in 10.0 mi Calm Calm - N/A   Overcast
4:49 AM 5.0 °F -2.1 °F -0.4 °F 78% 30.01 in 10.0 mi NNE 3.5 mph - N/A   Overcast
5:09 AM 5.0 °F -2.1 °F -0.4 °F 78% 30.01 in 10.0 mi NE 3.5 mph - N/A   Overcast
5:30 AM 5.0 °F -4.1 °F -0.4 °F 78% 30.01 in 10.0 mi NE 4.6 mph - N/A   Overcast
6:09 AM 6.8 °F - 1.4 °F 79% 30.01 in 10.0 mi Calm Calm - N/A   Overcast
6:29 AM 6.8 °F - 1.4 °F 79% 30.01 in 10.0 mi Calm Calm - N/A   Overcast
7:10 AM 6.8 °F - 1.4 °F 79% 30.01 in 10.0 mi Calm Calm - N/A   Overcast
7:29 AM 6.8 °F - 1.4 °F 79% 30.01 in 10.0 mi Calm Calm - N/A   Overcast
7:49 AM 8.6 °F - 1.4 °F 73% 30.02 in 10.0 mi Calm Calm - N/A   Overcast
8:10 AM 8.6 °F - 1.4 °F 73% 30.03 in 10.0 mi Calm Calm - N/A   Overcast
8:29 AM 8.6 °F 2.0 °F 1.4 °F 73% 30.03 in 10.0 mi NE 3.5 mph - N/A   Overcast
8:50 AM 10.4 °F 4.0 °F 3.2 °F 73% 30.02 in 10.0 mi NE 3.5 mph - N/A   Overcast
9:09 AM 12.2 °F - 5.0 °F 73% 30.03 in 10.0 mi Calm Calm - N/A   Overcast
9:29 AM 12.2 °F 6.1 °F 3.2 °F 67% 30.02 in 10.0 mi ENE 3.5 mph - N/A   Overcast
9:50 AM 14.0 °F 8.2 °F 3.2 °F 62% 30.02 in 10.0 mi ESE 3.5 mph - N/A   Mostly Cloudy
10:09 AM 14.0 °F - 5.0 °F 67% 30.03 in 10.0 mi Calm Calm - N/A   Mostly Cloudy
10:29 AM 15.8 °F - 5.0 °F 62% 30.03 in 10.0 mi Calm Calm - N/A   Overcast
10:50 AM 15.8 °F 10.2 °F 5.0 °F 62% 30.03 in 10.0 mi East 3.5 mph - N/A Snow Light Snow
11:09 AM 17.6 °F 12.3 °F 8.6 °F 68% 30.03 in 2.5 mi SE 3.5 mph - N/A Snow Light Snow
11:29 AM 17.6 °F 12.3 °F 10.4 °F 73% 30.02 in 4.0 mi SSE 3.5 mph - N/A Snow Light Snow
11:50 AM 17.6 °F 12.3 °F 10.4 °F 73% 30.02 in 5.0 mi ESE 3.5 mph - N/A Snow Light Snow
12:09 PM 17.6 °F 9.3 °F 12.2 °F 79% 30.02 in 5.0 mi South 5.8 mph - N/A Snow Light Snow
12:29 PM 17.6 °F 12.3 °F 12.2 °F 79% 30.02 in 2.5 mi SSE 3.5 mph - N/A Snow Light Snow
12:50 PM 17.6 °F 10.7 °F 12.2 °F 79% 30.02 in 1.2 mi SSE 4.6 mph - N/A Snow Light Snow
1:09 PM 19.4 °F 14.3 °F 14.0 °F 80% 30.01 in 1.0 mi SE 3.5 mph - N/A Snow Light Snow
1:29 PM 19.4 °F 11.5 °F 14.0 °F 80% 30.00 in 1.8 mi SE 5.8 mph - N/A Snow Light Snow
1:49 PM 21.2 °F 13.6 °F 15.8 °F 80% 30.00 in 1.2 mi SE 5.8 mph - N/A Snow Light Snow
2:09 PM 21.2 °F 12.6 °F 15.8 °F 80% 29.99 in 1.2 mi ESE 6.9 mph - N/A Snow Light Snow
2:29 PM 21.2 °F 14.9 °F 15.8 °F 80% 29.98 in 3.0 mi ESE 4.6 mph - N/A Snow Light Snow
2:49 PM 21.2 °F 16.4 °F 15.8 °F 80% 29.98 in 4.0 mi ESE 3.5 mph - N/A Snow Light Snow
3:10 PM 21.2 °F - 17.6 °F 86% 29.99 in 7.0 mi Calm Calm - N/A Snow Light Snow
3:29 PM 21.2 °F 12.6 °F 15.8 °F 80% 29.98 in 10.0 mi East 6.9 mph - N/A Snow Light Snow
3:49 PM 21.2 °F 14.9 °F 15.8 °F 80% 30.00 in 5.0 mi ESE 4.6 mph - N/A Snow Light Snow
4:10 PM 21.2 °F 14.9 °F 15.8 °F 80% 29.99 in 7.0 mi East 4.6 mph - N/A Snow Light Snow
4:49 PM 19.4 °F 10.4 °F 14.0 °F 80% 29.99 in 10.0 mi East 6.9 mph - N/A Snow Light Snow
5:10 PM 19.4 °F 12.8 °F 14.0 °F 80% 30.00 in 7.0 mi East 4.6 mph - N/A Snow Light Snow
5:29 PM 19.4 °F 14.3 °F 15.8 °F 86% 30.00 in 4.0 mi ENE 3.5 mph - N/A Snow Light Snow
5:49 PM 19.4 °F 14.3 °F 15.8 °F 86% 30.01 in 7.0 mi ENE 3.5 mph - N/A Snow Light Snow
6:09 PM 19.4 °F 12.8 °F 14.0 °F 80% 30.02 in 7.0 mi East 4.6 mph - N/A Snow Light Snow
6:29 PM 19.4 °F 14.3 °F 14.0 °F 80% 30.03 in 7.0 mi ENE 3.5 mph - N/A Snow Light Snow
6:50 PM 17.6 °F 12.3 °F 14.0 °F 86% 30.03 in 1.5 mi East 3.5 mph - N/A Snow Light Snow
7:09 PM 17.6 °F 9.3 °F 14.0 °F 86% 30.03 in 1.0 mi ENE 5.8 mph - N/A Snow Snow
7:29 PM 17.6 °F 10.7 °F 14.0 °F 86% 30.03 in 1.2 mi East 4.6 mph - N/A Snow Light Snow
7:50 PM 17.6 °F 8.2 °F 14.0 °F 86% 30.04 in 3.0 mi ENE 6.9 mph - N/A Snow Light Snow
8:09 PM 17.6 °F 8.2 °F 14.0 °F 86% 30.04 in 3.0 mi ENE 6.9 mph - N/A Snow Light Snow
8:30 PM 17.6 °F 10.7 °F 14.0 °F 86% 30.05 in 10.0 mi NE 4.6 mph - N/A Snow Light Snow
8:49 PM 17.6 °F 9.3 °F 14.0 °F 86% 30.05 in 10.0 mi NE 5.8 mph - 0.01 in   Overcast
9:09 PM 17.6 °F 10.7 °F 14.0 °F 86% 30.06 in 10.0 mi NE 4.6 mph - N/A   Overcast
9:30 PM 17.6 °F 10.7 °F 14.0 °F 86% 30.06 in 10.0 mi ENE 4.6 mph - N/A   Overcast
9:49 PM 17.6 °F 10.7 °F 14.0 °F 86% 30.07 in 10.0 mi ENE 4.6 mph - N/A   Overcast
10:09 PM 17.6 °F 10.7 °F 14.0 °F 86% 30.07 in 10.0 mi NE 4.6 mph - N/A   Overcast
10:30 PM 17.6 °F 12.3 °F 14.0 °F 86% 30.07 in 10.0 mi ENE 3.5 mph - N/A   Overcast
10:49 PM 17.6 °F 10.7 °F 14.0 °F 86% 30.07 in 10.0 mi NE 4.6 mph - N/A   Overcast
11:09 PM 17.6 °F 9.3 °F 14.0 °F 86% 30.07 in 10.0 mi NE 5.8 mph - N/A   Overcast
11:30 PM 17.6 °F 10.7 °F 14.0 °F 86% 30.08 in 10.0 mi ENE 4.6 mph - N/A   Overcast
11:49 PM 17.6 °F 10.7 °F 14.0 °F 86% 30.08 in 10.0 mi ENE 4.6 mph - N/A   Overcast